Regional Weather Roundup
Issued by NWS

Home | Current Version | Previous Version | Graphics & Text | Print | Product List | Glossary On
Versions: 1 2 3 4 5 6 7 8 9 10 11 12 13 14 15 16 17 18 19 20 21 22 23 24 25 26 27 28 29 30 31 32 33 34 35 36 37 38 39 40 41 42 43 44 45 46 47 48 49 50
000
ASUS45 KBOI 302310
RWRID

IDAHO REGIONAL WEATHER ROUNDUP
NATIONAL WEATHER SERVICE BOISE ID
500 PM MDT TUE JUN 30 2015

NOTE: "FAIR" INDICATES FEW OR NO CLOUDS BELOW 12000 FEET
WITH NO SIGNIFICANT WEATHER AND/OR OBSTRUCTIONS TO VISIBILITY

IDZ012-014-010000-
SOUTHWEST IDAHO


CITY           SKY/WX    TMP DP  RH WIND       PRES   REMARKS
BOISE          SUNNY    102  40  12 N14       29.92F HX  97
CALDWELL       SUNNY    102  52  18 NW8       29.90F HX 100
MOUNTAIN HOME  MOSUNNY  103  49  16 W10       29.91F HX  99
$$

IDZ016-017-010000-
SOUTHCENTRAL IDAHO


CITY           SKY/WX    TMP DP  RH WIND       PRES   REMARKS
BURLEY         PTSUNNY   94  55  26 W10       29.99F HX  92
JEROME         MOSUNNY   95  57  27 W10       30.00F HX  94
TWIN FALLS     SUNNY     98  50  19 NW10      29.99F HX  95
$$

IDZ019>023-010000-
SOUTHEAST IDAHO


CITY           SKY/WX    TMP DP  RH WIND       PRES   REMARKS
IDAHO FALLS    CLOUDY    87  47  24 SE12      30.08F
POCATELLO      SUNNY     92  56  29 NE20G28   30.03F HX  90
REXBURG        CLOUDY    83  59  44 NE6       30.10F
$$

IDZ006-010-011-018-031-032-010000-
CENTRAL IDAHO MOUNTAINS


CITY           SKY/WX    TMP DP  RH WIND       PRES   REMARKS
MCCALL         SUNNY     89  31  12 W5G22     30.09F
HAILEY         MOSUNNY   91  54  27 SW12G17   30.10F
STANLEY          N/A     86  41  20 NW9G17    30.21F
SALMON         MOSUNNY   95  50  21 N12G20    29.92F HX  92
CHALLIS        SUNNY     97  33  10 W14       30.03F HX  91
$$

IDZ002-004-006-007-026-010000-
NORTHERN IDAHO


CITY           SKY/WX    TMP DP  RH WIND       PRES   REMARKS
LEWISTON       SUNNY     99  48  17 NW9       29.91F HX  95
LOWELL           N/A    100  53  20 S5        29.89F HX  98
COEUR D`ALENE  SUNNY     91  48  22 W9        29.97F
MULLAN PASS    SUNNY     75  44  33 VRB7      30.23F
$$


USA.gov is the U.S. government's official web portal to all federal, state and local government web resources and services.